Location: Oakley
(37.9974°N, 121.7125°W)
Time: 06:30:41
(UTC+00:00)

Landsat 7 - Pass Details

Date: 13 February 2026
Orbit: 680 x 682 km, 97.9° (Epoch: 9 March)

Event Time Altitude Azimuth Distance (km) Brightness Sun altitude
Rises 14:27:19 0° 11° (NNE) 3,046 7.1 -6.9°
Reaches altitude 10° 14:29:33 10° 11° (NNE) 2,126 6.3 -6.4°
Maximum altitude 14:34:13 87° 284° (WNW) 686 3.8 -5.5°
Drops below altitude 10° 14:38:50 10° 195° (SSW) 2,111 6.3 -4.7°
Sets 14:41:04 0° 195° (SSW) 3,022 7.1 -4.2°
